Regional Weather Roundup
Issued by NWS Charleston, SC

Current Version | Previous Version | Graphics & Text | Print | Product List | Glossary On
Versions: 1 2 3 4 5 6 7 8 9 10 11 12 13 14 15 16 17 18 19 20 21 22 23 24 25 26 27 28 29 30 31 32 33 34 35 36 37 38 39 40 41 42 43 44 45 46 47 48 49 50
000
ASUS42 KCHS 290327
RWRCHS

REGIONAL WEATHER ROUNDUP
NATIONAL WEATHER SERVICE CHARLESTON SC
1100 PM EDT FRI AUG 28 2015

NOTE: "FAIR" INDICATES FEW OR NO CLOUDS BELOW 12,000 FEET WITH NO
SIGNIFICANT WEATHER AND/OR OBSTRUCTIONS TO VISIBILITY.

NOT ALL STATIONS ARE QUALITY CONTROLLED BY THE NATIONAL
WEATHER SERVICE. USE DATA WITH CAUTION...ESPECIALLY
DEWPOINT OBSERVATIONS.

SCZ027-030-031-034>040-042>050-290400-
...SOUTHEAST SOUTH CAROLINA...

CITY           SKY/WX    TMP DP  RH WIND       PRES   REMARKS
N CHARLESTON   CLOUDY    75  70  84 NE6       30.15R
WATERFRONT PRK   N/A     81  73  76 NE8       30.11R
MOUNT PLEASANT FAIR      75  72  88 N3        30.15R
JOHNS ISLAND   FAIR      79  72  78 NE8       30.14S
PINOPOLIS        N/A     81  72  74 E8        30.09R
MONCKS CORNER  FAIR      75  70  83 CALM      30.16S
SUMMERVILLE    FAIR      73  73 100 CALM      30.16S
BEAUFORT MCAS  CLOUDY    79  73  82 E8        30.14R
BEAUFORT ARPT  FAIR      77  73  88 E7        30.13S
HILTON HEAD IS MOCLDY    81  73  78 NE8       30.14S
WALTERBORO     CLOUDY    75  72  88 N3        30.16S
ALLENDALE      FAIR      75  72  88 CALM      30.16R

...SOUTHERN MIDLANDS AND PEE DEE...

CITY           SKY/WX    TMP DP  RH WIND       PRES   REMARKS
GEORGETOWN     NOT AVBL
KINGSTREE      NOT AVBL
ORANGEBURG     PTCLDY    72  61  68 CALM      30.17R
BARNWELL       FAIR      72  68  88 CALM      30.18R
AIKEN          FAIR      73  59  60 E5        30.21R
MANNING        FAIR      68  63  83 CALM      30.17S
COLUMBIA       PTCLDY    76  61  59 E3        30.16R
SUMTER         CLEAR     71  60  69 NE3       30.15S
FLORENCE       CLEAR     70  63  78 N3        30.17R
MYRTLE BEACH   PTCLDY    73  64  73 N6        30.17R
N MYRTLE BEACH PTCLDY    72  68  87 N3        30.15S

$$

GAZ063-065-086>088-099>101-113>116-118-119-134>141-150-290400-
...SOUTHEAST GEORGIA...

CITY           SKY/WX    TMP DP  RH WIND       PRES   REMARKS
SAVANNAH ARPT  MOCLDY    75  72  90 NE6       30.13S
HUNTER AAF     MOCLDY    76  76 100 N1        30.10S
FORT STEWART   MOCLDY    74  71  90 CALM      30.10S
STATESBORO     MOCLDY    72  72 100 CALM      30.15R
SYLVANIA       PTCLDY    74  74  98 NE3       30.17R
CLAXTON        NOT AVBL

...CSRA...CENTRAL AND FAR SOUTHEAST GEORGIA...

CITY           SKY/WX    TMP DP  RH WIND       PRES   REMARKS
THOMSON        MOCLDY    73  72  95 CALM      30.21R
AUGUSTA-BUSH   MOCLDY    72  70  93 CALM      30.15R
AUGUSTA-DANIEL MOCLDY    78  65  63 E6        30.17R
SWAINSBORO     CLOUDY   N/A N/A N/A E6        30.16R
VIDALIA        PTCLDY    75  70  83 E7        30.14S
EASTMAN        FAIR      74  74 100 E3        30.15S
HAZLEHURST     FAIR      76  76 100 CALM      30.12S
ALMA           CLOUDY    74  73  97 CALM      30.12S FOG
WAYCROSS       CLOUDY    79  78  98 CALM      30.11S
JESUP          FAIR      79  75  89 CALM      30.12R
BAXLEY         FAIR      77  73  88 E5        30.12S
BRUNSWICK        N/A     73  73 100 CALM      30.11F VSB 1
SAINT SIMONS   CLOUDY    82  73  74 E9        30.11R

$$

SCZ027-028-034-036>038-045-046-048>050-GAZ119-141-290400-
...LAKE AND SUPPLEMENTAL COASTAL OBSERVATIONS...

STATION/POSITION TIME  TEMP    WIND        PRES    WAVE   SWELL
                       AIR SEA DIR/SP/G            HT/PER HT/PER/DIR
                 (UTC) (F)     (DEG/KT/KT) (MB)    (FT/S) (FT/S/D)
UPR LAKE MARION  NOT AVBL
WINYAH BAY       0200   81      70/ 12     1020.0R
LAKE MURRAY      0200   80     100/  7/  9 1020.7R
ACE BASIN NERRS  NOT AVBL
FORT PULASKI     NOT AVBL
SAPELO ISLAND    0300   80      90/  4     1020.0R

$$

ANZ835-935-AMZ111-154-330-350-352-354-370-450-454-472-290400-
...C-MAN AND BUOY OBSERVATIONS...

STATION/POSITION TIME  TEMP    WIND        PRES    WAVE   SWELL
                       AIR SEA DIR/SP/G            HT/PER HT/PER/DIR
                 (UTC) (F)     (DEG/KT/KT) (MB)    (FT/S) (FT/S/D)
BUOY 41004       0250   82 84   50/ 14/ 17 1019.4R   5/ 7   2/ 8
BUOY 41008       0250   83 85  100/ 12/ 14 1019.7R   3/ 9   2/ 90/ 9
FOLLY BEACH CMAN 0300   80      70/ 14/ 15 1020.7R
CAPERS NEARSHORE 0208   81      90/ 14/ 17 1020.4R
FRIPP NEARSHORE  0200   82      80/ 16/ 17 1019.6R


STATION/POSITION TIME  TEMP    WIND        PRES    WAVE   SWELL
                       AIR SEA DIR/SP/G            HT/PER HT/PER/DIR
                 (UTC) (F)     (DEG/KT/KT) (MB)    (FT/S) (FT/S/D)
5E ST. MARYS GA  0221      86                N/A     3/ 4   2/100/13
FRYING PAN BUOY  0250   80 81   50/ 19/ 23 1020.1R   6/ 7   2/ 70/11
BUOY 41025       0250   80 82   40/ 17/ 19 1020.6S   5/11   3/ 90/11
CAPE LOOKOUT NC  0300   77      30/ 19/ 22 1020.8R
BUOY 41002       0250   82 84  190/  8/ 10 1019.8R   4/11   3/ 80/11
BUOY 41010       0220   83 85  150/  6/  8 1019.4R
ST AUGUSTINE FL  0300   82 86   90/  8/  9 1019.6F


$$


USA.gov is the U.S. government's official web portal to all federal, state and local government web resources and services.